Waarnemingen

Advertentie
Mijn weer
Visby Flygplats, Zweden (2590): temperatuur & dauwpunt: 20.05.2018 23:00:00 - 26.05.2018 23:00:00 (CEST)Visby Flygplats, Zweden (2590): windsnelheid & windstoten: 20.05.2018 23:00:00 - 26.05.2018 23:00:00 (CEST)Visby Flygplats, Zweden (2590): windrichting: 20.05.2018 23:00:00 - 26.05.2018 23:00:00 (CEST)Visby Flygplats, Zweden (2590): luchtdruk: 20.05.2018 23:00:00 - 26.05.2018 23:00:00 (CEST)Visby Flygplats, Zweden (2590): zicht: 20.05.2018 23:00:00 - 26.05.2018 23:00:00 (CEST)Visby Flygplats, Zweden (2590): neerslag: 20.05.2018 23:00:00 - 26.05.2018 23:00:00 (CEST)
Datum & Tijd tt [°C] td [°C] ff [km/u] ff [kn] fx [km/u] fx [kn] dd ppp [hPa] vv [km] rr [mm]
26.05.2018 23:00:00 15,0 12,0 2 1 - - NNO - 10 -
26.05.2018 22:00:00 15,6 11,6 2 1 7 4 ZW 1027,6 10 0,0
26.05.2018 21:00:00 17,3 11,1 4 2 11 6 - 1027,1 10 0,0
26.05.2018 20:00:00 18,2 11,3 8 4 14 8 O 1026,9 10 0,0
26.05.2018 19:00:00 19,1 11,6 9 5 14 8 ONO 1027,0 10 0,0
26.05.2018 18:00:00 20,0 12,0 11 6 22 12 ZO 1026,7 10 0,0
26.05.2018 17:00:00 20,2 12,2 8 4 14 8 ZO 1026,8 10 0,0
26.05.2018 16:00:00 19,7 12,0 13 7 25 14 ZZO 1026,9 10 0,0
26.05.2018 15:00:00 22,4 12,3 16 9 25 14 OZO 1027,1 10 0,0
26.05.2018 14:00:00 23,9 11,2 13 7 22 12 OZO 1027,0 10 0,0
26.05.2018 13:00:00 20,2 11,7 9 5 18 10 - 1027,2 10 0,0
26.05.2018 12:00:00 24,2 12,5 15 8 25 14 ONO 1027,2 10 0,0
26.05.2018 11:00:00 23,4 12,7 13 7 22 12 O 1027,5 10 0,0
26.05.2018 10:00:00 23,3 12,3 13 7 22 12 ONO 1027,4 10 0,0
26.05.2018 09:00:00 21,7 11,7 9 5 18 10 O 1027,4 10 0,0
26.05.2018 08:00:00 20,0 10,7 15 8 22 12 O 1027,3 10 0,0
26.05.2018 07:00:00 16,1 9,7 13 7 18 10 O 1027,2 10 0,0
26.05.2018 06:00:00 13,2 8,1 11 6 18 10 O 1027,7 10 0,0
26.05.2018 05:00:00 11,9 6,2 13 7 22 12 O 1027,4 10 0,0
26.05.2018 04:00:00 11,1 5,2 13 7 22 12 O 1027,5 10 0,0
26.05.2018 03:00:00 10,7 5,7 9 5 14 8 O 1027,9 10 0,0
26.05.2018 02:00:00 10,7 5,5 11 6 18 10 O 1028,0 10 0,0
26.05.2018 01:00:00 10,5 5,5 8 4 14 8 O 1028,1 10 0,0
26.05.2018 00:00:00 10,9 5,4 9 5 14 8 O 1028,1 10 0,0
25.05.2018 23:00:00 11,6 5,5 9 5 18 10 O 1027,8 10 0,0
25.05.2018 22:00:00 12,3 6,1 11 6 18 10 O 1027,7 10 0,0
25.05.2018 21:00:00 14,1 6,2 9 5 22 12 O 1027,5 10 0,0
25.05.2018 20:00:00 17,3 6,2 15 8 22 12 O 1027,4 10 0,0
25.05.2018 19:00:00 19,3 6,1 15 8 22 12 OZO 1027,1 10 0,0
25.05.2018 18:00:00 20,3 5,5 15 8 22 12 O 1027,2 10 0,0
25.05.2018 17:00:00 21,1 6,2 13 7 22 12 O 1027,5 10 0,0
25.05.2018 16:00:00 21,6 7,4 13 7 22 12 OZO 1027,7 10 0,0
25.05.2018 15:00:00 22,0 8,1 16 9 29 16 O 1027,8 10 0,0
25.05.2018 14:00:00 21,3 7,5 16 9 25 14 O 1027,9 10 0,0
25.05.2018 13:00:00 21,6 8,1 16 9 25 14 O 1027,9 10 0,0
25.05.2018 12:00:00 21,5 5,4 15 8 25 14 O 1027,9 10 0,0
25.05.2018 11:00:00 20,9 6,0 13 7 22 12 O 1028,1 10 0,0
25.05.2018 10:00:00 19,7 6,4 16 9 22 12 ONO 1028,1 10 0,0
25.05.2018 09:00:00 18,4 7,5 16 9 22 12 ONO 1028,4 10 0,0
25.05.2018 08:00:00 16,3 8,5 15 8 18 10 ONO 1028,4 10 0,0
25.05.2018 07:00:00 13,5 8,1 11 6 18 10 ONO 1028,5 10 0,0
25.05.2018 06:00:00 9,7 7,0 8 4 14 8 ONO 1028,4 10 0,0
25.05.2018 05:00:00 4,1 3,1 2 1 4 2 ONO 1028,7 10 0,0
25.05.2018 04:00:00 5,0 3,7 4 2 7 4 NO 1028,7 10 0,0
25.05.2018 03:00:00 3,4 2,4 4 2 7 4 NO 1028,8 10 0,0
25.05.2018 02:00:00 4,6 2,8 0 0 7 4 N 1029,1 10 0,0
25.05.2018 01:00:00 5,4 3,2 8 4 11 6 ONO 1029,1 10 0,0
25.05.2018 00:00:00 6,8 3,2 9 5 14 8 O 1029,1 10 0,0
24.05.2018 23:00:00 6,9 0,3 5 3 7 4 NO 1029,0 10 0,0
24.05.2018 22:00:00 8,8 -0,5 8 4 11 6 NO 1028,8 10 0,0
24.05.2018 21:00:00 11,8 -1,4 11 6 18 10 NO 1028,9 10 0,0
24.05.2018 20:00:00 15,2 -3,2 9 5 18 10 NO 1028,7 10 0,0
24.05.2018 19:00:00 17,0 -2,1 11 6 18 10 ONO 1028,8 10 0,0
24.05.2018 18:00:00 16,7 3,7 11 6 22 12 N 1029,1 45 0,0
24.05.2018 17:00:00 18,3 3,0 15 8 22 12 N 1029,4 10 0,0
24.05.2018 16:00:00 18,5 2,7 16 9 25 14 N 1029,5 10 0,0
24.05.2018 15:00:00 19,8 -3,2 15 8 25 14 NO 1030,0 10 0,0
24.05.2018 14:00:00 18,7 5,2 18 10 29 16 N 1030,4 10 0,0
24.05.2018 13:00:00 19,0 6,8 18 10 25 14 N 1030,4 10 0,0
24.05.2018 12:00:00 20,8 2,1 18 10 25 14 NO 1030,3 10 0,0
24.05.2018 11:00:00 19,8 1,2 21 11 25 14 ONO 1030,5 10 0,0
24.05.2018 10:00:00 18,1 4,3 15 8 22 12 N 1030,8 10 0,0
24.05.2018 09:00:00 16,6 5,5 13 7 22 12 N 1030,5 10 0,0
24.05.2018 08:00:00 13,8 6,9 11 6 22 12 N 1030,4 10 0,0
24.05.2018 07:00:00 12,3 7,6 11 6 18 10 N 1030,1 10 0,0
24.05.2018 06:00:00 10,3 8,2 5 3 14 8 N 1030,0 10 0,0
24.05.2018 05:00:00 5,4 4,4 4 2 7 4 N 1029,6 10 0,0
24.05.2018 04:00:00 4,7 3,7 4 2 7 4 NNO 1029,4 10 0,0
24.05.2018 03:00:00 4,9 4,0 0 0 7 4 N 1029,2 10 0,0
24.05.2018 02:00:00 5,9 4,9 2 1 7 4 O 1029,1 10 0,0
24.05.2018 01:00:00 6,7 5,2 4 2 7 4 N 1029,1 10 0,0
24.05.2018 00:00:00 8,3 6,4 8 4 14 8 NO 1028,8 10 0,0
23.05.2018 23:00:00 10,1 7,2 11 6 18 10 NO 1028,5 10 0,0
23.05.2018 22:00:00 12,1 6,6 9 5 18 10 NNO 1028,1 10 0,0
23.05.2018 21:00:00 14,8 7,1 13 7 25 14 NO 1027,1 10 0,0
23.05.2018 20:00:00 17,4 9,8 13 7 25 14 NO 1026,5 10 0,0
23.05.2018 19:00:00 17,4 10,0 11 6 22 12 N 1026,1 10 0,0
23.05.2018 18:00:00 19,1 5,5 11 6 18 10 N 1025,7 10 0,0
23.05.2018 17:00:00 17,1 10,0 15 8 22 12 NW 1025,7 10 0,0
23.05.2018 16:00:00 19,6 6,3 18 10 25 14 W 1025,0 10 0,0
23.05.2018 15:00:00 18,7 9,5 18 10 22 12 W 1024,8 10 0,0
23.05.2018 14:00:00 19,0 8,0 18 10 22 12 W 1024,4 10 0,0
23.05.2018 13:00:00 19,3 8,6 15 8 22 12 W 1024,1 10 0,0
23.05.2018 12:00:00 18,4 8,6 9 5 18 10 W 1023,9 10 0,0
23.05.2018 11:00:00 18,2 9,3 11 6 14 8 WNW 1023,6 35 0,0
23.05.2018 10:00:00 18,7 8,4 8 4 14 8 WNW 1023,0 10 0,0
23.05.2018 09:00:00 16,7 10,1 9 5 14 8 WNW 1022,6 10 0,0
23.05.2018 08:00:00 18,0 9,6 0 0 7 4 N 1021,9 10 0,0
23.05.2018 07:00:00 14,9 10,1 0 0 7 4 N 1021,4 10 0,0
23.05.2018 06:00:00 9,8 8,2 0 0 7 4 N 1021,0 10 0,0
23.05.2018 05:00:00 7,3 6,9 5 3 11 6 ZZO 1020,5 10 0,0
23.05.2018 04:00:00 6,5 5,6 5 3 11 6 OZO 1020,3 10 0,0
23.05.2018 03:00:00 8,3 7,1 4 2 11 6 ZZW 1020,1 10 0,0
23.05.2018 02:00:00 7,8 6,4 0 0 7 4 N 1020,0 10 0,0
23.05.2018 01:00:00 8,9 7,0 5 3 7 4 ZZO 1019,6 10 0,0
23.05.2018 00:00:00 11,2 7,9 2 1 11 6 - 1019,5 10 0,0
22.05.2018 23:00:00 12,6 8,3 5 3 7 4 ZO 1019,0 10 0,0
22.05.2018 22:00:00 13,3 7,7 4 2 7 4 OZO 1019,0 10 0,0
22.05.2018 21:00:00 15,3 7,8 0 0 14 8 N 1018,8 10 0,0
22.05.2018 20:00:00 16,9 7,8 8 4 14 8 O 1018,6 10 0,0
22.05.2018 19:00:00 18,5 7,0 8 4 14 8 OZO 1018,5 10 0,0
22.05.2018 18:00:00 18,8 6,9 16 9 25 14 ZO 1018,6 10 0,0
22.05.2018 17:00:00 19,4 6,5 18 10 29 16 ZZO 1018,7 10 0,0
22.05.2018 16:00:00 21,8 4,4 13 7 22 12 ZZO 1018,6 10 0,0
22.05.2018 15:00:00 22,5 4,5 11 6 25 14 O 1018,8 10 0,0
22.05.2018 14:00:00 21,7 4,3 16 9 29 16 OZO 1019,2 10 0,0
22.05.2018 13:00:00 22,6 5,5 16 9 25 14 ZO 1019,5 10 0,0
22.05.2018 12:00:00 21,4 4,9 16 9 25 14 OZO 1020,0 10 0,0
22.05.2018 11:00:00 21,5 5,0 18 10 22 12 OZO 1020,6 10 0,0
22.05.2018 10:00:00 20,1 6,8 15 8 18 10 ZO 1021,0 10 0,0
22.05.2018 09:00:00 20,4 6,7 11 6 14 8 ZO 1021,1 10 0,0
22.05.2018 08:00:00 18,4 8,4 13 7 14 8 OZO 1021,4 10 0,0
22.05.2018 07:00:00 15,9 9,1 9 5 11 6 OZO 1021,8 10 0,0
22.05.2018 06:00:00 12,4 8,1 11 6 11 6 OZO 1022,0 10 0,0
22.05.2018 05:00:00 9,3 6,7 15 8 14 8 OZO 1022,3 10 0,0
22.05.2018 04:00:00 8,9 6,3 13 7 14 8 OZO 1022,5 10 0,0
22.05.2018 03:00:00 9,7 5,3 16 9 14 8 OZO 1022,9 10 0,0
22.05.2018 02:00:00 10,3 4,7 15 8 14 8 OZO 1023,5 10 0,0
22.05.2018 01:00:00 10,8 4,0 15 8 14 8 OZO 1024,0 10 0,0
22.05.2018 00:00:00 9,5 3,2 13 7 14 8 OZO 1024,4 10 0,0
21.05.2018 23:00:00 9,2 4,0 13 7 14 8 OZO 1024,8 10 0,0
21.05.2018 22:00:00 10,2 3,7 8 4 7 4 OZO 1025,2 10 0,0
21.05.2018 21:00:00 15,4 2,9 5 3 11 6 OZO 1025,1 10 0,0
21.05.2018 20:00:00 16,7 7,9 2 1 7 4 - 1025,1 10 0,0
21.05.2018 19:00:00 15,8 6,2 5 3 14 8 NNW 1025,3 10 0,0
21.05.2018 18:00:00 16,4 5,9 5 3 11 6 WNW 1025,8 10 0,0
21.05.2018 17:00:00 16,6 5,8 8 4 14 8 WNW 1026,3 10 0,0
21.05.2018 16:00:00 17,0 5,9 9 5 14 8 WNW 1026,9 10 0,0
21.05.2018 15:00:00 15,8 6,0 11 6 18 10 W 1027,5 10 0,0
21.05.2018 14:00:00 17,9 5,8 11 6 22 12 W 1027,9 10 0,0
21.05.2018 13:00:00 16,9 5,5 11 6 14 8 WNW 1028,4 10 0,0
21.05.2018 12:00:00 16,9 5,2 9 5 14 8 WNW 1028,8 10 0,0
21.05.2018 11:00:00 17,1 4,7 8 4 14 8 W 1029,2 10 0,0
21.05.2018 10:00:00 17,1 4,1 5 3 14 8 W 1029,3 10 0,0
21.05.2018 09:00:00 16,6 3,6 9 5 18 10 W 1029,2 10 0,0
21.05.2018 08:00:00 16,5 4,2 11 6 14 8 W 1029,1 10 0,0
21.05.2018 07:00:00 15,4 4,7 9 5 14 8 W 1029,1 10 0,0
21.05.2018 06:00:00 12,9 4,8 9 5 25 14 WZW 1029,1 10 0,0
21.05.2018 05:00:00 14,0 4,0 11 6 25 14 W 1028,8 10 0,0
21.05.2018 04:00:00 10,1 4,2 9 5 14 8 WZW 1029,0 10 0,0
21.05.2018 03:00:00 13,0 4,2 15 8 22 12 WZW 1028,7 10 0,0
21.05.2018 02:00:00 13,5 3,6 15 8 25 14 WZW 1028,7 10 0,0
21.05.2018 01:00:00 13,6 3,1 16 9 25 14 WZW 1028,6 10 0,0
21.05.2018 00:00:00 10,6 4,1 11 6 14 8 ZW 1028,5 10 0,0
20.05.2018 23:00:00 10,8 3,8 13 7 14 8 ZW 1028,3 10 0,0

tt = temperatuur
td = dauwpunt
ff = windsnelheid
fx = windstoten
dd = windrichting
ppp = luchtdruk
vv = zicht
rr = neerslag

Weerstations in de omgeving